loading
|

DELTA 1 DEB, 3051

Orbit data source: Space-Track

DELTA 1 DEB, 3051 is space debris in LEO originally from a launch on Fri, 10 Nov 1967 UTC launched from the Air Force Western Test Range (AFWTR). Debris objects in space refer to the collection of defunct objects orbiting the Earth. Examples of debris include non-operational satellites, rocket bodies, and fragments generated from explosions, collisions, or faulty payload assembly.

Loading next visibility...
Next conjunction unknown
Loading greatness...
DELTA 1 DEB details
Identifier
3051, 1967-114C
Orbit
LEO
Last TLE update5 days ago
Origin
Flag of USGSFC (US)
ManufacturerUnknown
MissionSpacecraft
Bus & MotorUnknown bus, Unknown motor
MassUnknown
Launch date (UTC)
1967-11-10 (57 years ago)
Launch vehicleUnknown
Launch site
Air Force Western Test Range (AFWTR)
Object type
Payload
Rocket body
Debris
Shape & HBRUnknown
Radar Cross SectionSmall (<0.1 m²)

Expand to show TLE details & history

TLE from 5 days ago
0 DELTA 1 DEB
1 03051U 67114C   24281.47771211 -.00000003  00000-0  21817-3 0  9991
2 03051 101.0914 272.3115 0089078 282.1035 233.6432 12.62257870621328
Epoch: 2024-10-07T11:27Z
Definitive object data (Epoch: 2024-10-07T11:27:54.326Z)
Latitude24.59647°
Longitude-91.14642°
Altitude1,457.903 km
Speed7.116 km/s
True Right ascension06h 29m 44s
True Declination24° 28' 41"
Sunlit
Object was in daylight at TLE epoch
Predictive object data (real-time)
Latitude27.6541°
Longitude-86.1107°
Altitude1,452.271 km
Speed7.122 km/s
Apparent Right ascension06h 35m 57s
Apparent Declination-2° 12' 10"
Sunlit
Object is in daylight
Predictive observer data (real-time)
Local Sidereal Time18:16:12
Azimuth351.968° N
Elevation-52.021°
Doppler factor1
Orbital elements
Apogee1,480.517 km
Perigee1,341.746 km
Semi-major axis7,789.269 km
Eccentricity0.0089078
Inclination101.0914°
RAAN272.3115°
Arg. of periapsis282.1035°
True anomaly232.82656°
Mean anomaly233.6432°
Eccentric anomaly233.23434°
Mean motion3.15717 °/min
BSTAR0.00021817
Period114.03 mins
No data available
No data available
Other satellites on launch #114 in the year 1967 (1967-11-10 UTC)

DELTA 1 DEB Visibility forecast

Observer location: 39.9160978°, -105.1181434

Span
Click to sort rows by Start time (UTC) header in descending order
Start Az.
Max El. time (UTC)
Max El. Az.
Max El.
End time (UTC)
End Az.
11 mins2024-10-12 01:04:27.218Z226.373° WSW2024-10-12 01:09:27.218Z265.516° W19.009°2024-10-12 01:15:27.218Z312.466° NW
12 mins2024-10-12 11:08:27.218Z44.415° NE2024-10-12 11:14:27.218Z97.002° ESE24.659°2024-10-12 11:20:27.218Z147.022° SSE
14 mins2024-10-12 13:00:27.218Z7.845° NNE2024-10-12 13:06:27.218Z303.769° NW42.091°2024-10-12 13:14:27.218Z213.739° SW
6 mins2024-10-12 14:54:27.218Z333.477° NNW2024-10-12 14:57:27.218Z310.55° NW14.362°2024-10-12 15:00:27.218Z288.026° WNW
13 mins2024-10-12 22:02:27.218Z113.337° SE2024-10-12 22:08:27.218Z56.725° ENE29.005°2024-10-12 22:15:27.218Z359.919° N